Waynesville, NC (28786)

4:28 PM EDT on October 01, 2016 (GMT -0400)
Lake Junaluska | | Change Station

Elev 2657 ft 35.53 °N, 82.97 °W | Updated 3 seconds ago

Scattered Clouds
Scattered Clouds
73.4 °F
Feels Like 77 °F
N
1.3
Wind Variable Wind from SW
Gusts 2.5 mph

Today
High -- | Low -- °F
--% Chance of Precip.
Yesterday
High -- | Low -- °F
Precip. -- in
Pressure 30.04 in
Visibility 10.0 miles
Clouds Scattered Clouds 6500 ft
Heat Index 77 °F
Dew Point 52 °F
Humidity 47%
Rainfall 0.00 in
Snow Depth Not available.
7:27 AM 7:14 PM
New Moon, 1% visible
METAR KAVL 011954Z 00000KT 10SM SCT065 22/07 A3008 RMK AO2 SLP171 T02170067
Pressure 30.04 in
Visibility 10.0 miles
Clouds Scattered Clouds 6500 ft
Heat Index 77 °F
Dew Point 52 °F
Humidity 47%
Rainfall 0.00 in
Snow Depth Not available.
7:27 AM 7:14 PM
New Moon, 1% visible
METAR KAVL 011954Z 00000KT 10SM SCT065 22/07 A3008 RMK AO2 SLP171 T02170067

10-Day Weather Forecast

Almanac

Astronomy

Oct. 01, 2016 Rise Set
Actual Time
Civil Twilight
Nautical Twilight
Astronomical Twilight
Moon
Length of Visible Light
Length of Day
Tomorrow will be .
, % of the Moon is Illuminated

Today's Extremes

State Highs State Lows

Community

WunderPhotos

Upload Photos

1,943,013 photos uploaded!

WunderBlog® & News

Nearby

Air Quality

  Air Quality AQ Index Pollutant
Not available.

Snow Depth

Station Depth Elevation

Earthquake Activity

City Distance Mag. Time & Date
Minimum magnitude displayed is 2.5.

Coastal Water Temperatures

Place Temperature

Stations

Nearby Weather Stations

Station Location Temp. Windchill Dew Point Humidity Wind Precip. Elev Updated Type
                   

Watches & Warnings

There are currently no watches in effect.